Weather Roundup
Issued by NWS Chicago, IL

Home | Current Version | Previous Version | Graphics & Text | Print | Product List | Glossary On
Versions: 1 2 3 4 5 6 7 8 9 10 11 12 13 14 15 16 17 18 19 20 21 22 23 24 25 26 27 28 29 30 31 32 33 34 35 36 37 38 39 40 41 42 43 44 45 46 47 48 49 50
000
NZUS59 KLOT 211010
HRRLOT

CHICAGO AREA WEATHER ROUNDUP
NATIONAL WEATHER SERVICE CHICAGO/ROMEOVILLE IL
500 AM CDT SUN SEP 21 2014

NOTE: "FAIR" INDICATES FEW OR NO CLOUDS BELOW 12,000 FEET WITH NO
SIGNIFICANT WEATHER AND/OR OBSTRUCTIONS TO VISIBILITY.

* THESE STATIONS ARE NOT UNDER NWS QUALITY CONTROL. THEY ALSO MAY NOT
  REPORT WEATHER SUCH AS PRECIPITATION OR FOG.

ILZ005-006-012>014-019>023-211100-
NORTHEAST ILLINOIS

CITY           SKY/WX    TMP DP  RH WIND       PRES   REMARKS
OHARE          CLEAR     59  53  80 W15       29.77R
MIDWAY         PTCLDY    62  55  77 W12       29.78R
AURORA         CLEAR     56  52  86 W10       29.82R
LANSING*       CLEAR     60  55  83 W10G16    29.80R
JOLIET*        CLEAR     58  53  83 W7        29.83R
WAUKEGAN       CLEAR     57  50  77 VRB6      29.74R
DUPAGE AIRPORT CLEAR     58  53  84 W14       29.80R
WHEELING       CLEAR     60  51  72 W10G20    29.78R
KANKAKEE*      CLEAR     60  56  86 W13G21    29.84R
MORRIS*        CLEAR     58  56  95 W8        29.83S
LEWIS AIRPORT* CLEAR     58  54  88 W10G16    29.81S
NORTHERLY IS     N/A     62  52  69 W10         N/A
$$

WIZ051-052-058>065-066-070>072-211100-
SOUTHEAST WISCONSIN

CITY           SKY/WX    TMP DP  RH WIND       PRES   REMARKS
MILWAUKEE      PTCLDY    58  50  75 W12       29.72R
KENOSHA*       CLEAR     55  51  86 W10       29.74R
RACINE*        CLEAR     57  51  80 W12       29.74R
BURLINGTON     CLEAR     54  50  89 W10G17    29.75S
WAUKESHA       MOCLDY    54  50  87 W18       29.73S
WEST BEND      MOCLDY    54  48  82 W13G22    29.70S
$$

INZ001>003-010>013-019-020-211100-
NORTHWEST INDIANA

CITY           SKY/WX    TMP DP  RH WIND       PRES   REMARKS
GARY*          PTCLDY    63  57  82 W13       29.79R
MICHIGAN CITY* NOT AVBL
RENSSELAER*    NOT AVBL
VALPARAISO     PTCLDY    61  56  83 W14G22    29.78R
$$

LMZ740>746-211100-
SOUTHERN LAKE MICHIGAN

STATION/POSITION TIME  SKY/WX   TEMP WIND        PRES    VSBY
                                AIR  DIR/SP/G
                 (UTC)          (F)  (DEG/KT/KT) (MB)    (MI)
HARRISON CRIB    1000            62  280/ 21/ 29   N/A
BURNHAM HARBOR   1000            62  290/  7/ 17   N/A
CALUMET HARBOR   1000            62  260/  5/ 12 1007.1R
BURNS HARBOR     NOT AVBL
MICHIGAN CITY    1000            64  260/ 23/ 27   N/A
$$

ABBREVIATIONS USED IN REMARKS
   TC - TEMPERATURE IN CELSIUS
  WCI - WIND CHILL INDEX
   HX - HEAT INDEX
  VSB - VISIBILITY
$$



USA.gov is the U.S. government's official web portal to all federal, state and local government web resources and services.